Theta_e
310 310 310 310 310 310 310 311 311 311 311 311 312 312 311 312 311 311 310 310 311 311 311 311 310 310 310 310 310 310 310 310 311 311 312 312 313 313 312 312 312 313 312 312 312 312 313 313 313 314 315 314 313 315 314 316 315 318 330 330 324 324 323 319 317 314 317 320 312 311 313 314 315 312 313 314 313 313 314 314 315 316 316 315 315 315 315 315
310 310 310 310 310 310 310 310 311 311 311 311 312 311 311 311 311 310 310 310 311 311 311 311 310 310 310 310 310 310 310 311 311 311 311 312 313 313 313 313 313 314 313 313 313 313 314 313 314 314 315 314 314 315 314 315 314 319 326 325 328 330 319 314 314 311 313 316 312 312 312 313 315 313 313 314 314 313 313 314 314 315 315 315 316 315 315 315
310 310 310 310 310 310 310 310 311 311 311 311 311 311 311 310 310 310 310 310 311 311 311 311 310 310 310 310 310 310 310 311 311 311 311 313 313 313 313 313 313 313 313 314 313 313 314 313 314 314 314 314 315 315 314 315 313 314 317 323 331 323 313 311 312 312 313 313 312 312 312 313 314 313 314 314 313 312 313 315 314 314 316 316 316 315 315 315
309 309 309 309 310 309 310 310 311 311 311 311 311 311 310 310 310 310 310 310 311 311 311 310 310 310 310 310 310 310 312 311 312 312 312 314 314 312 313 313 313 313 313 313 314 313 313 313 314 314 315 315 314 315 314 314 314 312 315 322 319 311 312 314 312 313 313 313 313 312 312 313 313 314 314 313 314 314 314 315 315 315 316 316 315 315 315 315
309 309 309 309 310 310 310 310 311 311 310 310 310 310 310 310 310 310 309 309 311 310 310 310 310 310 310 310 310 311 313 313 313 313 313 314 313 312 313 313 313 313 313 313 314 314 313 313 314 314 315 315 315 316 314 312 313 313 313 314 310 308 314 314 311 313 312 313 313 312 313 314 313 313 313 313 315 316 315 315 316 316 315 315 315 315 315 315
309 309 309 309 309 309 309 309 309 309 309 309 308 309 309 310 311 310 309 309 310 310 310 310 310 310 310 310 310 311 313 313 313 313 313 313 313 313 313 313 313 313 313 313 313 314 314 314 314 315 315 314 314 316 315 312 313 317 314 309 310 310 313 313 311 313 312 313 313 312 313 313 313 313 313 312 314 316 315 316 315 315 315 315 315 315 315 315
308 307 307 307 307 307 307 307 307 307 307 307 307 307 308 309 310 309 309 309 309 309 310 310 310 310 310 310 310 311 312 312 313 312 312 312 312 313 313 313 313 313 313 313 313 314 314 314 315 315 314 313 312 313 314 313 313 318 317 311 311 311 311 312 312 312 312 313 313 313 313 313 313 314 312 312 315 316 315 316 315 315 315 314 315 314 315 315
306 306 306 306 306 306 306 306 306 306 306 306 306 307 307 307 308 308 308 308 308 309 310 310 310 309 310 310 310 311 311 312 312 312 312 312 312 313 313 313 312 313 313 312 313 314 314 315 315 314 314 313 313 313 313 314 314 317 317 312 312 312 312 313 312 312 313 313 313 313 313 312 313 313 311 313 316 315 315 316 315 315 315 315 315 315 315 315
306 305 306 306 306 306 306 306 306 306 306 306 306 306 307 307 307 307 307 308 308 309 309 309 309 309 310 310 310 311 310 311 312 312 312 312 313 313 313 313 314 315 314 313 313 314 315 315 315 315 314 313 314 313 312 315 314 314 314 313 312 313 312 313 313 313 313 313 313 313 313 312 312 312 312 315 316 315 315 315 315 315 315 315 315 315 315 315
307 307 307 307 307 307 307 307 307 307 306 307 307 307 307 307 307 307 307 308 308 309 309 309 309 310 310 310 310 310 311 311 311 312 312 312 313 312 313 313 315 316 314 314 314 314 315 315 315 315 315 314 314 313 313 315 315 313 313 313 313 313 313 313 314 313 313 313 313 314 313 312 311 312 314 316 316 316 315 315 315 315 314 315 315 315 315 314
309 309 309 309 309 309 308 309 308 308 308 308 308 308 307 307 307 308 308 308 308 308 309 309 309 309 309 310 310 310 312 313 312 312 312 312 312 312 313 314 316 317 316 315 315 315 315 315 316 315 316 315 314 313 312 313 313 313 313 314 314 313 314 314 314 313 314 314 312 313 312 311 311 312 315 315 315 316 315 316 315 314 315 314 314 314 315 315
309 310 310 309 309 310 309 309 309 309 309 309 309 309 308 309 308 308 308 308 308 308 308 309 309 309 309 310 309 311 314 315 314 313 312 313 312 312 313 314 316 317 317 316 315 315 315 316 316 316 316 314 315 314 313 313 313 313 314 317 318 318 317 313 312 312 313 314 313 312 313 314 314 313 315 314 314 315 314 315 315 315 315 314 315 314 314 315
309 309 309 309 309 309 308 308 308 308 308 308 308 308 308 308 309 309 309 309 309 309 309 309 309 309 309 310 310 311 312 313 314 313 312 312 312 313 313 314 315 317 318 316 316 315 315 317 316 316 315 314 315 313 314 312 312 316 313 315 321 323 321 312 310 312 312 314 312 312 317 322 320 314 314 314 314 314 314 315 315 315 316 315 315 314 315 315
308 308 308 308 308 308 308 307 307 307 307 307 307 307 307 308 308 308 308 309 309 309 309 309 309 309 309 310 312 312 311 311 312 313 313 313 312 313 313 314 314 316 317 317 317 316 316 317 317 317 315 315 314 313 319 316 316 319 312 317 323 318 322 317 308 311 314 313 312 313 317 321 322 315 313 315 314 313 314 314 315 315 315 315 315 314 315 315
308 308 308 308 307 307 307 307 307 307 307 307 307 307 307 308 308 308 308 308 308 308 309 309 309 310 310 310 311 311 311 310 311 313 313 313 312 313 313 313 314 315 317 318 317 316 316 317 316 316 313 314 314 316 325 322 322 323 313 322 324 315 326 324 308 309 314 312 310 313 318 318 318 316 314 314 314 313 313 314 315 315 315 315 315 315 315 315
308 308 308 308 308 307 307 307 307 307 307 307 307 307 307 307 307 308 308 308 308 308 307 308 309 309 310 310 310 311 311 311 311 311 313 314 312 313 313 313 313 315 316 317 317 316 317 317 316 315 313 314 319 327 331 323 324 325 316 321 324 317 324 322 310 307 309 311 310 312 317 319 318 314 313 313 312 312 312 314 315 315 316 315 315 315 315 315
309 308 308 308 308 308 308 307 307 306 306 306 306 306 306 306 307 307 308 307 308 308 307 309 309 309 309 310 311 311 311 311 311 310 312 314 313 313 313 313 314 314 316 317 317 316 317 316 315 314 315 314 318 327 327 320 322 324 317 319 323 320 319 319 318 310 306 311 313 313 314 316 316 312 312 313 311 312 312 314 316 315 315 315 315 315 315 316
313 310 309 308 308 308 308 308 308 307 307 306 306 306 306 306 306 306 307 307 307 307 307 309 310 310 311 310 311 313 312 312 311 311 311 313 314 313 313 314 314 314 316 316 315 317 316 314 315 318 319 317 318 321 322 324 327 326 323 322 321 319 316 320 322 312 308 313 314 315 314 314 314 311 312 313 311 311 312 313 314 315 315 315 315 315 316 317
317 315 312 309 308 307 308 308 308 308 308 308 307 307 306 306 307 307 307 307 308 309 310 310 309 312 314 311 310 313 314 313 312 311 311 313 314 313 314 314 314 314 314 316 316 315 314 315 317 320 321 320 319 318 320 324 325 326 330 332 327 321 319 321 323 313 308 313 316 316 315 315 314 313 312 312 311 310 311 312 312 313 314 315 315 316 317 317
321 319 317 314 311 308 307 307 307 308 308 308 308 307 307 308 307 307 308 307 308 309 311 311 309 311 314 312 310 311 313 313 312 312 312 314 314 314 315 313 315 315 314 319 319 312 314 319 321 323 322 319 318 317 318 319 320 322 326 329 325 321 320 320 321 313 306 313 320 316 314 314 314 313 311 310 310 309 309 310 311 314 315 315 316 316 317 317
322 322 321 319 316 312 309 307 307 307 307 308 308 307 307 307 308 309 309 308 308 308 308 311 311 310 312 313 312 311 312 312 313 314 314 314 315 314 315 314 316 317 313 313 315 312 316 321 323 323 317 314 317 318 318 318 319 322 322 321 321 320 320 317 316 313 307 312 320 317 313 314 313 313 311 309 309 309 309 310 311 314 315 316 316 316 318 318
323 323 323 321 320 318 314 310 307 307 307 307 307 307 307 307 308 309 310 310 310 309 308 308 310 310 311 312 312 312 312 313 313 314 315 314 315 315 314 315 317 318 313 311 314 317 319 321 322 316 310 311 317 315 316 317 319 324 322 318 320 320 319 317 314 313 310 311 319 320 315 313 313 312 310 308 308 310 311 312 312 314 314 314 316 317 317 317
323 324 323 323 322 320 318 315 311 308 307 307 307 307 307 307 308 309 310 310 310 310 309 309 308 309 310 310 311 312 312 314 314 314 315 314 315 314 313 315 318 319 316 315 319 320 320 323 318 310 309 315 318 313 315 317 317 321 321 319 322 320 318 318 316 314 312 310 316 319 314 312 312 312 312 310 310 311 312 313 313 312 313 314 316 316 316 317
322 323 324 323 323 322 321 318 316 312 309 308 308 307 307 308 308 308 308 310 311 311 309 309 309 307 309 309 310 311 312 313 313 313 315 314 314 314 312 314 317 318 316 316 318 317 319 318 310 307 311 317 319 315 316 317 318 320 320 319 321 321 319 317 317 316 315 313 313 315 317 320 319 317 317 313 309 310 312 312 312 313 314 315 315 315 316 316
322 322 323 323 323 323 322 320 319 316 313 312 310 307 307 307 308 309 310 312 315 314 310 309 310 309 308 309 309 311 312 313 313 313 314 314 314 314 312 312 314 317 316 315 315 316 317 312 308 313 314 315 319 318 318 319 320 323 322 318 319 320 319 317 317 318 320 322 315 312 321 331 329 324 321 318 317 318 314 310 311 315 316 315 315 316 317 317
323 323 323 323 322 322 321 320 320 319 316 314 311 309 307 307 310 310 312 319 319 315 312 311 311 311 309 309 309 311 312 312 312 313 314 314 314 313 313 312 311 314 315 315 314 315 315 310 312 321 318 315 316 316 318 318 318 322 319 316 315 315 316 317 316 317 323 325 314 310 318 326 325 321 318 321 324 323 316 311 311 314 316 316 316 317 317 317
324 323 323 323 322 322 321 320 320 319 318 316 313 311 309 309 312 310 314 323 321 315 315 312 311 311 310 310 310 310 312 313 312 313 314 314 313 312 315 314 311 312 311 312 315 314 313 312 313 319 319 318 316 316 318 315 318 322 316 315 317 315 317 319 317 317 321 320 314 314 319 320 319 319 319 320 321 320 316 315 313 312 314 316 316 317 317 317
323 323 323 323 322 322 322 321 321 319 318 318 315 312 310 310 313 313 318 322 319 315 315 312 310 311 310 310 311 309 310 311 313 314 314 314 313 312 314 314 314 315 310 312 317 313 312 317 316 316 318 317 318 322 319 313 318 319 311 313 317 317 320 321 320 320 318 318 319 317 317 318 321 322 321 318 318 320 320 321 318 312 314 316 316 317 317 317
322 323 323 323 322 322 322 322 322 320 319 318 315 312 310 312 315 317 320 321 317 315 314 312 311 311 310 311 310 309 310 310 313 314 313 313 314 313 314 312 311 314 310 310 317 312 310 315 313 314 318 317 318 319 313 313 317 312 307 312 315 316 320 320 322 322 320 321 321 320 318 317 320 323 323 320 320 324 324 323 318 312 314 316 316 317 316 316
321 321 321 321 322 321 321 322 321 321 320 318 315 311 311 315 317 320 321 322 319 315 312 312 312 311 311 312 311 310 310 311 312 313 312 313 313 312 312 311 310 316 315 313 317 314 309 309 309 312 315 313 315 311 306 310 312 308 313 320 319 320 320 320 322 321 321 323 319 320 319 316 319 322 324 322 322 325 325 323 321 315 316 317 316 316 316 315
319 320 320 320 321 320 321 321 321 321 321 319 316 311 313 318 318 321 323 318 317 316 312 312 313 311 312 313 312 311 311 311 311 313 314 313 313 312 312 312 313 320 321 317 317 314 309 311 312 311 310 309 313 312 307 307 306 311 325 326 320 323 321 320 323 321 322 322 317 316 315 314 319 322 322 321 319 321 322 325 328 321 317 318 317 316 316 315
317 319 319 319 319 319 320 320 321 321 320 319 316 312 315 318 317 321 322 317 318 319 315 315 314 312 313 313 313 313 312 313 311 313 316 314 314 313 313 315 315 318 319 316 317 314 313 316 313 310 309 310 317 319 313 310 310 316 325 322 318 322 320 319 323 321 322 320 314 313 315 314 317 319 319 319 319 320 316 316 321 317 315 318 318 316 316 315
314 316 317 318 319 318 319 320 320 321 319 315 314 313 315 319 319 320 321 320 320 316 314 317 315 313 313 313 314 312 312 315 312 313 315 314 315 314 314 317 315 316 318 315 314 315 317 316 312 313 313 311 316 319 317 316 315 317 320 320 320 321 320 324 325 319 318 319 313 310 314 317 318 319 318 317 316 316 312 311 314 314 316 318 317 316 316 315
313 313 314 316 317 317 318 319 319 320 319 314 312 314 316 319 321 320 320 321 320 316 315 316 313 312 313 314 316 312 311 314 313 314 315 314 316 316 316 316 312 317 322 317 314 315 317 317 315 315 314 313 314 314 318 320 316 316 319 319 321 323 323 326 329 324 320 322 317 310 314 323 324 321 317 312 311 312 312 313 314 313 316 317 316 316 315 314
312 312 313 314 316 317 316 318 318 318 319 314 312 314 316 318 320 320 321 320 320 319 316 314 314 314 314 315 316 312 311 314 313 314 316 315 317 316 316 316 312 316 320 316 315 315 314 317 317 312 310 313 314 312 315 318 315 315 317 318 318 321 322 319 318 320 319 321 321 316 317 322 322 320 315 311 312 312 310 311 312 313 316 316 315 315 314 314
311 311 312 313 314 315 316 317 317 317 317 313 312 315 316 317 318 319 320 319 321 319 315 316 317 317 315 316 315 312 311 314 314 314 316 315 316 316 315 315 312 313 314 312 317 317 315 318 315 309 309 311 311 311 311 313 315 315 315 319 316 314 321 321 313 311 312 315 319 319 319 319 319 320 317 315 318 315 312 311 311 313 316 314 313 314 314 314
311 311 311 312 312 314 316 317 317 317 316 313 313 315 315 314 316 317 318 317 317 316 315 318 318 317 317 316 316 314 313 315 314 314 316 314 316 317 315 315 313 312 312 311 317 319 317 320 315 310 314 310 307 310 309 307 313 317 318 318 313 310 319 324 318 317 318 318 321 320 318 318 319 320 318 317 318 318 317 316 311 311 313 313 314 314 314 315
311 311 311 311 311 312 314 316 316 316 315 313 313 315 314 313 314 316 316 315 314 315 316 319 318 317 317 316 317 315 313 316 315 314 315 314 316 316 315 315 313 311 311 310 314 317 315 317 316 310 313 312 307 312 313 309 309 315 317 315 315 319 321 320 319 322 322 321 324 323 318 317 318 319 320 319 321 323 321 317 314 312 311 313 316 316 315 316
311 312 312 311 310 311 313 315 316 315 314 314 313 314 313 313 313 314 315 314 314 316 318 319 318 317 317 317 317 315 313 315 314 313 315 314 315 314 312 314 314 310 310 309 313 317 314 315 318 310 309 312 312 314 318 316 310 311 313 311 314 321 321 319 319 320 322 323 324 325 322 320 319 322 324 321 321 324 322 320 321 315 311 314 317 316 316 317
311 312 312 312 311 310 312 314 315 314 315 314 313 313 313 313 313 313 315 315 315 317 319 319 319 319 318 316 316 315 314 315 314 313 316 315 315 315 312 313 315 312 310 309 312 315 314 314 317 313 309 312 316 316 315 317 314 313 315 315 315 317 318 320 319 317 322 326 326 326 323 321 323 323 324 322 323 324 322 325 325 314 311 316 317 316 317 317
310 311 311 312 311 311 312 314 314 313 315 314 312 312 312 313 313 313 314 315 316 316 317 319 321 321 319 317 316 316 315 315 314 314 316 314 314 317 314 312 315 313 311 311 312 314 315 315 317 317 314 314 318 315 311 314 316 314 315 316 315 316 317 319 317 316 320 322 325 325 321 322 325 320 320 326 329 325 318 318 318 313 313 315 316 317 317 317
310 311 311 311 311 311 312 313 312 312 315 315 313 312 312 312 313 314 314 314 315 315 315 318 320 320 320 319 318 317 315 315 315 314 316 315 314 317 315 311 311 312 312 313 314 312 314 317 317 318 318 317 315 310 305 309 315 315 314 315 315 315 316 319 320 319 319 318 318 320 320 322 321 319 323 327 321 314 308 308 309 311 314 314 314 316 317 316
309 310 311 311 311 311 313 314 313 312 314 315 314 313 312 312 313 313 314 313 314 315 315 316 317 318 319 319 317 318 316 315 316 315 316 316 315 314 313 311 310 311 312 315 316 313 314 317 316 316 320 320 316 311 306 308 312 314 315 315 315 315 315 319 322 320 320 319 318 318 320 320 316 316 315 310 305 306 306 307 309 311 314 315 315 316 316 316
308 309 309 311 312 312 312 313 313 313 313 313 314 313 312 312 312 313 314 314 314 316 316 316 317 317 318 317 316 317 317 317 317 315 316 318 317 313 311 311 311 312 313 315 316 313 313 317 316 315 320 321 318 316 313 311 312 315 318 317 315 316 316 317 319 319 319 320 319 319 320 319 317 316 312 308 309 310 307 308 311 312 314 315 315 316 316 315
307 308 308 309 312 312 312 311 311 312 312 312 314 314 313 312 312 313 314 313 313 315 316 316 316 316 317 316 315 315 316 318 318 316 315 319 318 312 310 311 312 312 312 313 313 314 316 318 316 315 318 319 319 319 318 316 314 315 319 317 314 315 316 316 317 318 319 320 319 319 320 318 317 317 317 314 316 317 312 311 312 313 314 315 315 315 315 315
307 307 307 308 310 310 310 310 310 311 312 312 313 313 313 313 312 312 313 314 313 314 315 316 316 316 317 317 316 316 316 317 318 317 316 319 319 314 309 310 311 310 312 313 312 314 318 318 316 316 318 318 319 321 320 318 317 316 317 316 314 313 315 315 316 318 318 318 318 318 318 319 318 318 321 319 318 322 320 312 311 313 315 315 315 314 315 315
306 307 308 308 308 308 308 309 310 310 311 312 312 313 313 313 313 312 313 313 314 314 315 316 315 316 317 316 317 317 317 316 317 317 316 317 318 315 310 308 309 310 311 312 312 315 318 317 316 316 317 316 318 322 320 318 318 317 316 316 314 313 313 315 317 317 318 318 319 318 317 319 318 317 321 322 321 324 319 310 311 315 316 316 315 315 314 315
306 306 307 308 308 308 308 309 309 309 310 311 311 312 312 313 313 313 313 313 313 314 314 315 315 316 317 317 317 317 317 317 316 316 317 316 316 317 314 310 309 308 309 308 309 313 317 318 316 316 316 315 316 319 320 319 317 317 316 315 315 313 313 315 316 316 317 318 318 318 317 318 317 315 318 320 318 319 317 313 314 315 315 316 315 315 315 314
304 305 306 306 306 307 307 307 307 309 310 310 311 311 312 312 313 313 313 313 313 313 314 314 315 316 316 317 317 317 317 318 317 316 316 316 316 317 318 316 311 306 307 308 308 309 315 318 317 315 316 317 316 317 318 318 316 316 316 316 315 314 313 314 315 315 316 317 317 318 318 318 316 316 318 317 314 314 315 315 314 314 315 317 316 315 315 315
303 304 305 305 305 304 304 305 307 308 309 309 310 310 310 311 312 312 312 313 313 313 313 314 315 315 315 316 316 317 317 317 318 317 316 316 316 315 316 318 315 308 305 309 310 309 313 317 317 315 316 317 316 316 316 315 315 315 317 316 314 314 313 314 315 315 316 316 316 316 318 317 315 315 316 315 313 313 314 314 314 315 316 316 315 315 315 315
302 304 304 304 304 304 304 304 305 308 308 307 308 309 310 310 311 311 312 312 312 313 313 314 314 314 315 315 315 315 315 316 317 317 316 316 316 315 315 315 315 312 308 308 310 311 312 315 316 316 316 317 317 317 316 315 313 314 316 316 315 314 314 313 314 315 315 316 316 316 317 317 315 316 316 313 312 312 312 312 313 315 316 316 315 316 316 316
300 302 303 302 303 304 305 304 304 306 308 307 307 308 309 309 309 309 311 311 311 312 313 313 313 314 314 314 314 315 315 315 315 315 315 315 314 315 316 313 312 314 312 309 310 311 312 314 315 315 317 318 317 317 316 315 315 315 316 315 315 314 314 314 314 314 314 315 316 316 316 315 315 318 317 316 316 314 312 312 314 315 316 316 316 316 316 316
Wind_Speed
15 14 13 11 11 11 11 11 10 10 9 9 8 8 8 8 8 8 8 9 9 9 9 8 7 6 5 3 3 3 3 3 3 3 2 1 1 0 0 1 1 1 1 1 1 2 1 1 2 2 1 3 4 6 7 6 5 4 3 4 2 3 4 6 8 8 4 3 8 11 14 9 4 9 10 6 6 7 8 12 12 12 15 13 9 8 7 9
16 14 13 12 12 11 11 10 10 10 9 9 8 8 8 8 8 8 9 9 9 9 9 8 6 5 4 3 3 3 3 2 3 3 2 2 2 1 2 3 2 2 1 0 1 2 1 1 2 2 1 4 5 4 5 4 4 3 3 3 3 5 4 5 10 10 3 3 11 12 13 11 6 11 12 5 5 7 6 10 14 14 15 16 14 12 10 10
16 15 14 13 12 11 10 10 10 10 9 9 9 9 9 9 9 9 9 9 10 9 9 8 6 5 3 3 3 2 2 2 3 3 3 3 3 4 5 5 4 4 3 2 1 1 1 1 2 3 4 6 5 5 4 4 3 2 4 2 4 6 3 4 12 12 3 3 12 12 11 9 6 11 12 6 4 5 8 11 14 17 17 16 16 14 13 12
16 15 14 13 12 11 11 10 10 10 10 9 9 9 9 9 9 9 9 10 10 9 9 8 6 5 3 3 2 2 1 1 3 3 4 4 5 7 6 5 4 3 4 4 2 2 2 2 3 4 6 5 5 5 4 6 2 2 4 3 4 4 1 3 10 9 3 3 10 12 9 6 7 11 11 8 3 4 13 17 16 18 16 13 15 15 14 14
15 13 12 12 12 11 11 11 10 10 10 9 9 9 9 9 9 10 9 10 10 9 9 8 6 5 4 3 2 2 2 1 3 4 5 6 7 9 7 4 2 1 3 4 3 3 3 3 4 5 5 4 4 4 3 5 5 4 2 2 3 4 2 2 5 6 6 5 9 11 7 6 8 9 12 11 6 7 13 14 14 16 15 13 13 14 14 15
12 11 11 11 11 11 10 10 10 10 9 9 9 9 9 9 9 9 9 9 10 9 9 8 6 5 4 3 2 3 2 2 2 4 5 8 10 10 7 3 2 2 2 3 3 3 3 4 5 4 4 3 4 4 3 3 4 3 1 1 4 3 2 2 2 4 7 7 9 11 8 7 8 7 10 15 16 16 12 10 9 10 13 16 15 14 14 15
10 10 10 11 11 10 10 10 10 9 9 9 9 9 9 9 9 9 8 9 9 9 9 7 6 5 4 3 2 3 2 2 3 4 6 8 10 10 7 3 3 4 3 1 2 2 4 4 6 7 6 4 2 3 4 4 3 4 2 2 4 1 2 2 2 5 6 5 8 9 8 6 7 6 6 15 23 21 17 15 13 11 10 13 15 16 15 15
11 11 10 10 10 10 11 11 10 10 9 9 8 8 8 8 8 8 8 8 9 9 8 7 6 5 4 3 3 2 2 2 2 4 6 8 9 8 6 3 4 3 3 1 1 3 4 4 7 7 5 3 3 2 3 4 5 4 2 3 3 1 1 2 3 5 5 4 7 7 7 5 6 6 7 18 23 19 19 19 18 17 16 15 16 16 16 17
10 10 10 9 10 10 10 10 10 10 9 9 9 8 7 7 7 7 7 8 8 9 7 6 5 5 4 3 2 1 2 4 3 4 6 7 8 6 4 3 2 2 1 2 2 3 4 5 6 4 3 5 5 3 4 3 2 2 3 3 3 3 2 3 3 4 3 3 6 5 4 3 5 5 11 21 23 20 20 19 19 19 19 19 18 18 18 18
9 9 9 9 9 9 9 9 9 9 8 9 9 8 8 7 7 7 7 7 8 8 7 6 5 4 4 3 2 1 3 5 4 6 7 8 7 5 3 2 1 1 2 4 4 4 5 5 5 6 6 7 6 4 5 4 2 3 4 5 5 3 2 2 3 3 3 3 4 5 3 2 3 2 8 14 13 16 18 19 20 19 19 19 19 19 19 19
8 8 8 8 8 8 8 8 8 8 8 7 7 7 7 7 7 7 7 7 7 7 6 5 5 4 4 3 3 3 3 3 4 8 9 8 7 5 3 2 1 2 3 5 6 6 6 6 7 6 4 5 5 5 6 5 4 4 3 3 4 5 2 1 2 3 3 2 3 3 1 2 2 3 12 15 11 13 14 16 18 18 19 19 19 19 20 21
7 7 8 8 8 8 8 8 8 7 7 7 6 6 6 6 7 7 7 6 6 6 6 5 4 4 4 5 6 5 3 2 3 8 10 8 7 6 4 2 2 3 4 6 7 7 6 6 6 4 4 7 5 4 6 6 4 5 5 1 5 8 3 3 2 3 3 1 1 2 1 4 4 10 20 17 14 16 16 18 18 18 19 19 20 20 20 21
7 7 8 8 8 8 8 8 8 7 7 6 6 6 6 5 6 6 6 6 6 6 6 5 5 5 4 5 6 6 7 5 3 7 11 10 8 7 5 3 2 3 4 5 7 6 6 5 4 6 9 8 4 4 6 5 4 3 5 2 3 7 4 3 1 2 3 2 2 4 2 6 7 18 22 16 16 17 17 20 20 20 20 20 20 21 21 21
9 8 8 8 8 8 8 8 7 7 6 6 6 5 5 5 5 5 5 5 6 6 6 6 5 5 5 5 5 6 8 8 7 7 11 11 9 8 6 4 2 3 4 5 6 6 6 6 5 7 9 7 7 8 5 5 5 1 2 2 2 2 4 4 0 3 4 4 6 6 3 6 8 15 16 16 19 17 19 21 19 20 20 21 21 21 23 22
10 9 9 9 9 9 9 8 8 7 6 6 5 4 4 4 4 4 4 4 5 5 6 6 6 5 5 6 7 8 8 9 10 10 11 12 11 9 7 5 3 3 3 5 6 6 7 6 6 7 9 9 10 7 3 4 4 3 1 2 3 1 5 7 2 6 4 2 7 6 3 6 9 12 10 12 16 16 20 21 19 21 20 21 22 22 23 23
9 9 10 10 10 10 10 9 9 8 7 7 6 5 4 4 4 3 3 4 4 4 4 5 5 5 3 5 7 8 9 11 12 12 12 13 12 10 9 6 4 4 4 4 5 6 5 4 7 8 7 7 6 4 4 3 3 4 1 2 2 1 3 6 2 4 2 2 5 4 3 4 5 6 3 3 9 13 17 20 20 21 22 22 22 22 23 23
7 8 9 10 11 12 11 11 10 9 8 8 7 7 6 5 5 4 4 4 3 4 4 4 4 5 4 5 7 8 10 12 13 14 13 13 12 11 10 8 6 5 5 5 5 4 3 4 6 5 4 4 3 4 3 2 3 3 2 1 3 2 2 3 3 1 2 2 3 3 4 8 7 8 9 7 8 11 15 19 20 20 21 22 22 23 23 23
3 4 6 8 10 12 12 12 12 11 10 9 8 8 7 7 6 5 5 4 3 2 3 5 5 2 6 9 8 8 10 12 12 13 13 13 13 11 11 9 6 6 5 5 4 3 3 4 4 2 3 3 2 5 3 4 3 3 2 1 2 2 2 4 4 2 2 2 2 3 5 12 12 14 22 22 15 15 19 22 23 23 24 24 24 25 25 26
1 1 3 5 7 9 11 12 13 12 11 11 10 9 8 7 6 6 6 6 6 5 2 9 11 4 2 10 11 9 6 7 10 11 13 13 13 13 11 8 7 7 6 4 2 3 4 4 5 2 1 2 5 6 7 7 6 6 6 4 3 3 4 6 5 4 2 2 4 7 7 11 13 12 20 24 18 17 21 24 26 29 30 30 30 30 30 31
3 3 3 4 4 6 7 9 12 13 12 12 11 10 7 4 2 4 8 10 12 11 5 8 14 8 2 3 9 11 7 6 8 11 13 14 14 14 11 9 8 5 4 3 2 2 4 3 2 5 7 7 8 7 6 5 6 6 5 4 4 3 5 5 3 4 1 3 6 8 7 10 13 12 17 23 16 14 20 23 28 32 33 33 33 33 34 34
6 6 5 4 5 5 5 7 9 11 12 12 12 10 7 6 3 1 5 8 12 15 12 8 11 12 7 2 4 9 9 8 9 12 14 15 15 13 10 8 6 3 0 3 5 3 4 4 7 9 6 6 7 7 7 6 6 5 5 3 1 2 6 6 1 3 0 3 5 4 4 10 12 13 18 19 11 14 22 24 30 34 34 35 35 36 36 34
9 9 7 7 7 6 5 6 7 9 10 10 11 10 9 9 8 5 4 4 7 12 15 15 14 14 13 10 7 7 9 7 8 13 15 16 16 12 9 8 5 3 2 4 6 3 2 3 11 8 8 8 5 6 8 5 5 4 3 3 2 3 5 6 3 4 1 3 4 4 4 9 12 13 18 21 17 21 29 31 34 35 33 35 38 39 39 37
12 11 11 10 9 9 8 6 6 7 8 9 10 10 10 9 9 8 5 3 6 9 13 18 19 19 18 15 13 11 10 7 7 14 17 18 18 13 11 9 4 4 3 4 6 4 3 6 9 8 11 8 5 5 7 6 3 2 4 4 3 3 2 4 4 4 1 2 2 4 6 7 9 11 15 22 21 24 33 35 36 37 36 40 42 41 40 40
16 14 13 13 12 12 10 8 7 6 7 9 8 9 10 9 7 6 4 2 5 7 11 15 18 22 23 18 16 14 13 10 8 13 19 21 18 12 10 9 6 5 4 7 8 6 5 6 2 8 8 7 6 4 6 5 2 2 4 6 4 4 5 5 4 4 2 2 3 3 6 5 6 8 10 10 8 15 26 28 31 36 39 42 43 41 42 42
20 18 16 14 14 14 12 11 9 7 8 8 7 9 10 9 5 3 3 1 4 4 7 12 14 18 22 20 18 14 11 11 11 13 18 23 21 11 7 8 6 4 6 6 5 4 7 5 6 7 4 6 7 4 5 7 3 4 5 9 9 7 6 4 3 5 4 4 3 3 4 5 3 5 9 5 3 9 16 16 23 32 33 35 38 38 39 39
23 21 19 18 17 16 15 12 9 8 7 6 7 9 9 8 5 4 4 3 3 3 3 9 9 10 16 17 18 14 5 8 14 15 17 22 22 12 6 5 3 3 6 6 3 3 4 4 6 6 5 6 5 3 5 7 5 3 5 7 9 6 4 3 0 1 1 3 3 3 1 7 4 6 11 6 5 11 12 12 22 30 31 33 35 37 36 35
26 25 23 22 20 20 17 11 11 10 6 6 8 8 8 8 7 5 4 4 4 5 6 8 9 10 12 15 22 17 2 5 11 14 19 22 20 12 6 4 3 2 6 6 1 2 3 4 3 5 6 5 5 4 6 8 7 3 4 4 6 6 6 5 4 3 3 3 4 1 2 6 5 7 8 4 7 12 12 14 20 26 33 35 36 36 35 34
28 28 26 26 25 24 19 14 14 11 7 6 7 9 10 10 8 6 5 1 2 5 6 6 9 11 12 18 25 15 5 9 8 11 21 23 19 11 5 7 6 5 7 7 4 3 3 6 7 7 5 4 6 5 8 11 5 4 3 6 6 6 5 4 5 2 1 3 5 2 4 4 6 5 3 2 5 10 12 15 16 21 29 30 29 29 27 26
26 28 26 24 25 25 23 21 18 12 9 7 6 10 12 12 9 5 4 2 2 3 3 6 8 9 13 18 17 8 7 6 3 10 21 19 17 8 2 8 8 6 5 4 4 2 1 4 7 8 5 6 4 1 6 10 4 4 7 7 6 5 5 5 4 3 3 3 7 5 6 4 6 4 1 1 3 7 10 11 12 19 26 25 23 21 19 19
21 24 23 21 24 27 26 26 23 16 14 10 9 13 16 13 7 4 2 3 1 2 3 7 7 9 15 13 5 1 4 2 5 14 14 11 13 7 6 8 6 5 1 4 2 3 1 1 2 4 4 5 6 4 2 4 7 10 8 6 6 5 4 3 2 4 2 5 6 5 10 6 4 3 4 4 4 6 8 7 9 15 20 18 14 12 12 12
19 19 20 22 26 29 28 30 28 22 20 15 13 18 17 8 3 4 7 1 2 2 4 4 3 8 14 10 3 3 2 2 7 14 8 5 7 5 7 6 3 4 2 5 3 2 1 1 1 3 5 7 9 6 6 6 7 8 4 4 4 3 4 4 4 3 1 6 4 2 5 6 6 6 4 5 6 6 7 7 7 10 15 14 6 4 7 7
17 17 18 21 26 29 30 31 27 23 21 17 20 24 14 2 1 5 4 2 1 4 5 3 2 6 9 5 4 6 4 2 6 8 5 4 5 6 6 6 5 3 2 7 4 2 1 4 2 2 5 8 7 5 5 4 2 4 4 6 4 2 2 2 3 0 3 7 3 2 1 4 8 8 8 10 11 10 10 12 13 13 17 17 10 9 11 9
16 17 18 19 22 26 29 28 24 22 21 21 27 24 10 2 6 8 7 3 1 2 3 3 2 5 8 6 4 4 3 2 5 4 2 4 5 6 5 4 6 3 2 6 3 0 3 5 1 3 3 8 9 6 3 1 3 5 5 6 4 2 1 3 3 1 4 6 3 1 1 3 5 5 11 16 17 16 16 20 23 21 23 24 20 19 18 14
16 16 17 17 18 21 24 26 25 23 21 25 25 14 5 6 5 7 11 6 0 2 3 4 5 4 5 4 3 5 3 2 5 5 2 5 5 6 5 6 6 2 3 4 2 5 5 6 5 6 4 11 12 7 7 6 5 5 4 5 5 5 5 4 4 3 5 4 3 2 1 4 3 3 8 12 15 17 19 24 25 26 31 31 28 27 23 18
16 16 16 16 15 17 19 24 27 24 24 27 17 5 7 8 3 5 9 4 1 1 3 3 6 5 3 2 3 4 3 2 5 5 3 6 5 6 6 7 9 5 4 4 2 3 4 7 6 2 3 13 12 6 7 8 3 3 3 4 4 5 5 2 3 5 2 3 4 2 4 5 4 5 8 8 11 12 14 19 21 27 35 34 32 30 24 19
17 17 17 17 18 18 17 21 25 26 26 23 9 3 8 6 3 4 4 4 4 4 5 3 4 4 4 2 2 4 1 1 5 4 2 4 3 6 6 6 11 11 8 7 2 2 2 5 5 2 1 7 6 3 5 4 3 2 3 4 4 4 6 3 2 1 4 2 4 2 5 6 3 7 9 6 9 9 9 13 17 24 28 28 29 27 21 18
17 17 18 19 19 17 17 22 24 27 28 20 5 5 5 3 4 3 2 4 6 8 8 3 2 5 5 3 3 5 2 1 4 4 4 2 2 7 7 4 9 15 14 9 3 3 5 4 5 1 2 4 0 4 3 3 4 5 4 6 3 2 3 3 2 2 3 4 5 2 6 6 3 5 5 2 7 10 9 11 14 18 20 22 25 23 18 17
14 15 18 21 20 18 18 20 23 27 24 12 5 7 4 3 7 5 3 4 6 7 7 6 5 5 6 6 4 6 5 3 5 5 4 3 5 8 10 5 7 17 20 12 3 3 4 2 5 1 2 2 2 4 2 4 3 5 4 5 4 2 2 2 3 3 2 3 4 4 5 5 5 5 3 4 9 10 11 10 9 13 18 23 26 21 16 16
11 10 14 17 18 19 18 17 25 29 17 4 5 6 4 4 5 6 8 6 4 5 7 8 7 4 5 7 4 5 7 6 8 7 4 5 5 7 13 11 8 15 22 17 7 2 3 3 4 1 1 1 3 2 5 1 2 3 2 2 2 2 4 3 3 3 3 3 3 4 5 5 7 6 7 10 11 10 10 8 6 12 22 27 26 20 16 14
11 7 8 11 12 15 18 20 25 23 9 3 6 4 3 4 6 12 15 9 4 5 6 6 6 4 4 4 3 4 7 6 8 7 5 6 6 4 10 12 4 5 14 17 9 1 3 4 4 2 3 1 2 5 8 9 7 4 3 4 3 1 1 1 1 2 4 3 2 2 7 9 6 5 8 10 9 9 10 7 7 13 22 25 23 20 17 11
13 6 5 9 9 12 21 21 16 11 4 4 5 2 3 4 4 11 15 10 5 4 4 3 5 5 3 3 3 4 6 6 8 7 4 6 7 5 8 14 11 8 8 9 8 6 4 4 4 2 1 4 4 3 5 8 9 8 8 9 10 7 4 3 3 1 2 2 3 3 7 12 6 4 7 7 6 8 9 9 9 13 16 16 15 15 13 10
12 6 4 9 11 17 24 15 6 5 5 6 7 6 6 4 2 7 12 11 7 3 1 1 3 5 4 5 6 4 5 5 6 7 5 7 10 6 6 15 19 18 13 5 7 8 4 2 3 4 4 6 4 1 1 3 3 3 5 5 7 7 7 6 6 3 2 1 1 3 5 11 5 5 5 5 4 6 8 9 11 13 11 8 8 10 11 12
10 9 6 9 16 24 22 7 4 6 4 6 7 8 10 7 4 6 9 10 7 3 4 3 2 5 5 4 5 5 6 5 5 7 5 5 8 5 5 13 18 16 11 2 2 5 4 2 4 4 3 3 4 3 2 2 2 2 3 1 4 7 7 5 4 4 4 4 3 3 5 11 4 1 3 4 4 7 8 10 12 15 10 7 7 10 12 13
10 11 9 8 17 25 17 4 4 6 6 6 4 5 9 9 7 8 7 8 8 4 4 4 4 5 4 1 3 4 5 5 4 7 5 3 4 4 8 17 17 11 8 4 5 10 7 3 5 5 3 3 4 3 2 1 1 3 3 3 6 9 7 3 2 3 3 8 10 7 8 11 4 3 4 3 3 7 9 8 9 13 11 8 10 12 13 12
8 10 11 14 23 26 18 10 8 7 7 9 6 6 8 5 9 16 13 10 11 7 4 6 8 7 3 2 3 2 4 5 4 4 5 4 3 2 7 18 20 15 10 5 8 13 9 3 6 8 7 8 7 5 5 4 2 2 4 7 9 11 11 6 3 3 5 10 10 6 10 13 4 1 4 4 3 5 8 8 9 12 12 10 11 13 14 12
6 5 7 13 22 25 19 16 12 7 8 10 8 8 11 6 6 15 15 11 14 13 6 5 8 8 5 5 6 6 7 8 6 3 4 4 3 1 4 14 19 15 8 5 10 11 3 2 8 11 11 13 11 6 3 6 7 6 10 10 10 11 13 10 5 6 10 10 6 8 15 19 13 6 5 6 5 5 7 8 10 13 13 14 14 13 14 13
6 4 5 7 10 15 16 14 10 5 5 9 6 4 11 11 4 7 12 11 15 17 9 3 6 7 5 8 9 8 9 9 7 5 5 4 4 3 1 6 11 10 5 6 11 9 2 2 8 11 13 15 11 6 4 6 9 13 15 13 12 12 13 12 11 13 13 9 9 14 17 18 21 16 9 7 7 6 7 10 13 15 15 15 14 15 17 16
9 4 8 9 5 4 9 12 11 9 7 8 6 2 7 11 8 7 9 9 13 17 10 4 7 10 10 11 9 6 7 8 7 8 8 5 3 3 2 3 7 11 7 5 7 7 3 4 6 6 10 15 13 7 5 5 6 9 12 15 15 15 16 17 19 21 17 12 13 19 18 17 24 22 12 10 9 8 10 14 14 14 15 15 16 20 21 18
14 7 7 9 6 2 5 8 9 10 11 8 6 6 7 10 12 10 7 4 6 11 12 8 10 14 14 12 9 7 7 7 6 8 8 8 7 4 3 3 2 7 7 5 4 4 3 4 5 4 5 12 15 11 7 7 7 5 8 12 14 16 19 22 24 25 23 18 17 21 19 18 22 18 10 12 15 17 19 17 15 15 18 21 23 24 23 22
16 11 6 5 5 5 4 4 5 6 8 7 5 7 8 10 12 9 7 8 6 6 12 15 14 14 14 13 11 11 11 10 9 9 9 9 8 5 5 5 2 3 3 3 2 4 4 5 4 5 3 11 15 14 9 9 9 9 8 7 10 16 20 22 23 21 19 18 20 21 18 18 18 12 8 12 15 17 17 18 21 26 29 30 30 30 29 29
21 16 8 2 2 4 4 3 4 4 3 4 4 4 7 10 12 7 6 13 14 9 10 16 17 12 11 14 14 14 16 16 15 16 15 14 12 9 6 5 4 5 3 3 2 3 4 3 1 4 4 10 14 16 14 9 5 8 10 10 14 17 17 18 17 16 16 17 20 18 14 17 15 6 6 11 11 11 14 19 25 31 34 35 36 37 37 35
27 22 15 5 2 5 5 2 3 5 5 6 6 6 5 4 4 4 4 10 17 19 16 17 17 11 8 12 17 22 27 26 24 24 20 16 17 15 12 12 10 9 6 4 2 3 5 3 1 3 4 9 14 13 9 5 3 7 13 19 23 20 15 12 13 17 20 17 15 13 14 20 16 5 6 10 7 9 16 22 27 32 36 37 38 38 37 37
Wind_Direction
187 189 190 193 195 196 195 196 197 198 200 202 205 207 211 212 212 211 207 202 197 191 189 190 186 184 188 198 214 233 230 212 200 190 193 192 176 188 12 34 16 1 328 261 230 213 170 29 13 38 63 87 84 93 101 102 111 118 99 98 162 176 194 189 179 185 164 181 190 180 180 172 166 179 179 185 207 221 222 216 214 218 222 230 236 239 245 227
189 192 196 199 201 203 203 203 204 205 208 208 210 212 214 214 213 210 206 203 197 193 192 192 188 188 196 200 214 232 228 214 199 198 203 200 199 184 119 93 67 46 30 340 203 197 174 31 28 46 81 97 78 93 105 81 83 87 99 118 202 195 201 195 179 179 150 158 176 174 180 183 183 179 178 184 210 209 221 226 223 229 230 233 239 243 248 237
193 196 200 203 205 206 208 210 210 213 214 215 216 215 215 212 209 206 203 201 197 195 195 194 190 192 201 207 216 222 223 213 194 200 203 193 183 164 137 114 92 77 69 56 108 132 128 68 66 78 101 99 77 98 96 51 64 68 100 138 235 210 210 199 184 178 146 144 165 167 179 185 186 179 181 194 205 202 219 225 222 231 236 237 241 243 245 238
198 201 202 203 205 207 211 214 215 218 218 218 217 215 215 210 205 203 201 200 197 196 195 195 193 195 204 209 212 200 204 203 187 191 195 190 179 167 151 134 110 82 65 53 58 64 77 93 99 101 101 93 65 91 66 31 68 83 108 170 232 190 155 182 189 192 186 154 165 169 170 183 188 182 188 185 172 233 234 231 230 238 244 245 248 249 247 239
202 203 203 203 204 207 212 215 217 219 218 217 214 213 212 208 205 202 202 199 197 196 195 195 196 201 207 209 207 181 122 80 190 196 193 189 179 174 165 157 152 81 51 43 47 64 92 113 118 104 90 79 46 73 40 33 91 85 60 222 175 137 98 151 187 209 200 169 163 166 165 186 185 188 202 191 192 234 239 241 244 250 250 247 249 253 251 243
203 200 201 204 203 205 208 210 211 212 213 212 210 209 208 207 206 205 205 201 198 196 193 194 197 203 206 211 205 180 134 75 178 181 176 181 178 179 177 186 244 283 331 24 43 68 98 115 122 106 84 70 42 72 56 40 111 99 6 215 151 115 57 110 152 184 183 174 168 170 181 191 179 201 218 211 226 237 240 248 249 255 250 242 243 245 248 246
192 191 196 198 195 197 197 197 200 201 204 204 205 206 204 204 205 206 207 202 199 195 192 195 200 206 208 214 199 186 160 90 134 158 158 168 177 185 190 219 264 279 286 330 30 94 103 106 122 111 91 80 86 97 58 57 100 107 111 189 171 80 32 98 109 150 156 171 176 174 186 195 192 214 235 232 240 244 246 250 248 255 252 244 244 245 247 246
182 185 189 190 189 189 188 189 189 190 192 194 195 198 198 199 200 202 203 200 197 192 192 197 202 208 210 214 209 206 194 145 145 162 160 168 179 189 200 242 279 293 272 247 78 119 104 103 128 118 93 86 119 118 54 72 63 67 135 196 167 83 51 112 108 142 133 141 170 177 189 202 217 231 254 250 251 251 251 253 252 253 253 252 252 252 252 247
178 182 184 186 188 188 190 189 187 187 187 187 188 190 192 193 193 193 192 192 191 191 195 201 208 213 213 218 218 214 199 193 192 182 175 177 182 190 211 253 283 311 222 161 120 126 115 116 132 126 126 126 113 82 49 85 35 45 123 146 130 76 76 129 138 148 148 161 173 191 204 215 230 253 266 257 256 256 254 255 255 254 254 254 255 256 254 250
180 182 185 189 191 193 195 193 193 192 189 190 187 186 188 188 190 189 187 187 189 193 198 205 211 213 220 225 200 179 195 199 199 193 189 185 185 191 213 247 303 55 110 122 108 111 117 119 129 122 125 124 104 66 44 77 114 89 99 108 94 53 57 144 179 174 193 203 199 208 216 243 210 208 259 254 255 254 253 255 255 255 255 254 254 254 253 251
188 190 194 197 201 202 203 203 203 200 199 198 193 193 192 190 191 189 188 191 193 196 201 209 213 218 228 226 198 176 173 190 198 195 191 191 193 196 210 222 99 91 104 113 105 102 108 114 130 129 118 122 107 73 65 84 100 74 83 122 37 14 3 241 207 209 215 215 238 216 234 277 157 189 245 247 253 256 257 258 257 257 256 255 253 250 249 249
203 204 208 209 211 210 209 210 208 207 204 199 196 200 200 200 200 198 197 196 199 204 207 212 215 221 230 240 234 215 183 160 182 192 191 193 196 200 213 204 120 96 98 109 108 102 108 117 130 127 114 136 130 79 86 87 85 63 66 154 332 3 355 301 281 238 221 221 243 136 308 274 200 228 244 249 253 255 257 257 258 258 257 255 252 250 246 245
218 220 222 220 220 217 216 216 213 212 206 200 198 195 197 204 207 209 211 208 211 214 218 223 224 230 237 248 247 232 225 221 208 195 193 195 196 202 210 191 144 106 102 110 112 107 112 114 116 120 119 128 122 109 114 76 74 66 49 68 338 4 339 304 339 238 199 200 162 124 269 267 238 241 243 249 254 254 255 254 256 257 258 256 251 250 247 245
220 228 233 231 229 226 225 225 223 221 217 214 210 202 200 204 209 214 216 219 221 225 230 233 234 237 239 247 246 234 231 226 222 211 200 199 197 199 205 191 159 122 106 107 110 109 110 103 101 111 109 110 117 118 100 36 48 50 15 33 29 9 281 293 356 160 163 204 172 137 256 263 267 261 249 249 253 252 254 253 255 256 257 257 254 252 251 248
215 224 233 238 239 234 232 231 229 228 228 230 228 224 220 219 226 225 222 225 223 227 232 235 237 234 242 250 244 237 233 225 220 214 206 203 201 201 200 190 171 149 121 112 113 114 115 111 104 98 96 109 119 108 39 7 26 31 3 317 354 166 269 305 264 169 157 199 171 150 257 266 271 271 262 254 249 245 250 255 254 255 257 257 257 257 257 255
212 221 230 238 243 242 240 238 234 231 231 236 241 242 244 247 250 247 245 240 231 232 225 227 228 216 233 248 236 235 231 225 219 212 210 206 204 204 201 195 181 163 141 125 120 123 128 113 95 91 100 113 113 88 50 19 351 4 62 238 269 173 280 318 310 187 150 121 179 193 253 271 282 272 270 259 247 240 246 257 257 255 258 257 259 260 261 260
204 216 228 236 242 245 246 245 243 240 240 243 248 254 261 265 266 266 261 250 243 234 213 211 209 207 237 242 229 231 224 220 218 213 210 208 205 204 204 200 182 173 164 146 136 132 131 112 106 98 83 82 88 92 67 342 295 318 17 226 237 210 233 295 318 250 117 98 210 231 245 254 270 271 268 277 275 255 248 259 264 262 262 261 261 261 261 263
192 215 229 236 243 246 247 250 249 248 250 252 256 261 265 271 276 276 268 250 221 187 201 199 170 170 240 228 217 220 219 218 216 212 208 206 203 201 202 199 182 176 163 150 152 134 110 97 105 91 37 35 73 103 131 225 207 191 171 168 251 246 233 256 282 239 131 72 231 230 256 261 269 273 270 272 272 261 258 263 266 266 264 262 261 260 261 262
215 243 250 250 252 251 250 251 251 252 253 255 258 259 262 269 275 270 255 232 194 161 183 200 182 149 211 214 212 211 212 210 208 207 205 201 198 197 195 188 177 167 149 148 152 105 108 87 81 100 216 207 186 160 180 198 157 151 167 149 164 209 255 241 249 255 176 129 242 232 242 261 270 274 272 274 270 258 261 264 264 265 264 262 261 261 261 261
253 250 268 281 272 264 260 254 252 251 249 251 253 252 251 233 239 269 239 224 215 209 212 200 194 190 140 177 208 211 206 198 200 199 197 198 194 189 182 169 159 145 134 153 161 96 103 103 134 213 217 199 193 174 152 146 119 116 124 121 152 192 271 251 247 292 194 168 254 239 237 262 269 271 271 273 272 259 257 259 261 263 263 263 262 263 263 263
271 257 255 274 281 279 266 255 254 252 247 245 242 239 231 204 191 269 229 230 237 228 228 221 203 206 213 201 193 200 198 195 199 196 194 193 187 182 178 162 138 128 185 122 115 90 93 130 221 226 195 163 175 150 122 112 96 95 122 138 196 208 259 257 238 315 218 177 268 279 263 263 264 270 273 272 264 250 251 252 257 260 262 264 265 265 265 265
268 269 262 257 267 275 267 257 252 251 247 240 234 229 229 228 228 242 250 266 263 240 232 229 219 215 221 225 216 196 187 185 197 197 193 186 183 186 179 158 135 157 189 104 100 64 84 212 240 215 124 101 104 124 125 119 99 90 118 135 240 238 271 285 310 341 14 186 267 321 297 265 264 268 270 265 253 253 257 254 257 260 261 263 264 265 265 265
250 265 270 263 260 262 264 261 248 245 242 235 233 227 231 237 233 239 255 282 277 254 235 230 227 223 220 224 227 213 195 191 197 196 194 187 184 188 175 154 131 139 156 171 157 145 171 246 248 184 140 109 74 97 112 105 108 121 133 146 227 240 267 283 295 332 7 185 271 306 294 273 265 264 265 262 254 257 262 260 261 261 259 262 263 264 266 266
242 248 261 266 263 259 258 259 255 247 237 235 235 225 227 231 224 231 235 279 292 258 236 232 229 227 224 223 226 219 209 213 209 197 195 190 180 179 179 161 128 133 182 196 176 177 218 247 197 139 149 137 110 120 128 131 219 246 186 183 205 221 217 235 290 328 330 4 18 323 303 283 260 259 261 270 267 261 264 263 263 261 260 262 263 263 264 264
241 242 251 259 263 261 256 256 257 249 237 234 228 217 218 219 210 207 187 40 309 267 241 230 226 230 225 220 221 211 207 222 221 207 200 194 184 169 166 162 148 178 198 174 160 215 248 227 135 112 124 141 133 162 171 159 197 281 230 202 207 215 219 240 347 5 357 339 345 18 322 284 289 274 260 280 331 274 268 265 263 263 264 263 263 264 265 265
236 236 240 248 258 257 251 251 250 245 236 225 217 210 208 202 180 175 147 52 306 244 196 204 208 219 212 208 201 187 200 239 218 208 199 197 194 176 147 148 137 191 178 146 149 230 239 193 141 124 136 145 141 186 211 172 151 277 251 203 204 194 181 215 72 36 294 272 281 63 351 280 295 267 262 279 291 275 275 272 267 267 267 263 263 267 268 269
235 232 230 236 245 247 244 244 245 242 227 216 214 198 190 180 160 158 128 28 288 194 150 177 183 188 196 190 182 175 191 199 183 196 193 191 196 187 176 165 106 169 160 132 210 251 168 166 142 125 127 133 151 200 216 168 145 237 247 153 158 158 175 196 155 178 234 279 295 91 136 277 273 251 269 289 265 275 280 274 271 268 266 265 265 268 270 272
236 233 228 227 235 244 245 245 248 243 227 228 212 183 168 162 157 138 113 8 260 147 141 171 166 177 182 175 176 171 137 143 145 188 186 184 191 186 193 195 163 177 172 149 211 261 148 180 193 163 144 168 190 213 190 162 153 246 201 119 131 148 156 141 123 168 315 349 293 218 137 274 267 247 308 345 255 270 270 263 267 268 269 272 271 272 275 276
235 233 230 226 231 239 242 241 239 234 229 224 190 173 160 151 149 107 87 223 189 113 139 163 156 168 160 162 179 169 127 138 116 171 175 178 187 179 172 191 165 155 186 185 209 251 103 191 198 163 160 198 198 257 181 168 176 178 135 96 82 82 84 88 109 121 55 317 259 199 160 251 275 224 173 28 253 255 258 258 263 268 274 279 282 282 281 279
234 230 229 229 228 227 232 237 233 229 229 215 180 166 154 145 133 118 176 226 176 104 120 154 167 165 150 149 187 181 120 102 109 144 158 171 178 159 117 150 140 122 183 316 260 233 22 80 177 166 176 169 127 66 64 127 138 136 114 75 59 40 45 55 48 86 70 279 267 202 181 199 275 257 199 210 224 222 234 255 269 273 279 289 296 292 285 283
235 227 223 229 230 225 226 231 230 223 218 212 186 163 152 139 103 177 203 204 33 132 123 148 170 149 151 149 174 182 115 57 138 145 147 156 162 141 118 133 113 82 10 308 280 285 347 91 223 194 161 125 102 67 41 73 118 121 92 85 79 355 11 28 352 52 143 254 281 280 194 194 239 255 234 246 261 239 220 238 261 272 282 294 311 289 289 304
242 232 225 228 232 231 229 233 234 220 209 205 185 165 151 141 184 207 219 70 58 203 157 163 175 152 160 153 161 171 131 105 167 159 148 146 162 174 175 180 163 109 278 238 244 341 242 227 243 168 168 156 121 77 46 31 72 98 100 113 104 325 349 343 293 110 224 250 278 333 243 230 241 248 252 258 263 248 224 229 244 257 272 280 282 281 290 302
242 237 235 230 231 233 233 237 236 221 208 191 172 157 141 215 199 202 212 177 190 225 125 107 107 144 157 153 174 167 122 165 183 167 144 139 169 206 235 226 181 160 203 195 197 287 266 293 235 149 203 191 166 143 148 204 179 156 149 144 143 151 174 255 264 278 267 269 286 283 241 257 264 256 240 239 246 244 237 242 250 259 267 270 275 281 286 288
242 241 240 235 235 235 236 240 235 227 213 184 163 145 158 211 194 195 208 206 7 18 53 90 102 115 154 168 211 174 141 214 176 146 128 134 163 213 238 239 211 155 96 144 173 180 216 282 208 178 189 182 184 189 163 140 158 184 158 140 159 164 173 215 221 222 259 286 296 281 244 207 208 255 239 239 255 254 247 248 253 259 262 264 269 273 277 281
244 243 238 233 233 228 232 237 233 232 213 182 162 146 189 197 194 202 208 198 112 42 32 57 99 118 196 273 289 193 167 225 172 137 150 165 184 204 199 210 201 165 138 178 221 162 203 265 239 230 158 166 180 191 136 112 139 209 120 122 195 189 158 170 202 181 184 315 301 246 230 218 206 270 266 253 266 265 252 249 251 253 255 258 262 263 269 278
245 243 238 234 227 221 223 226 230 232 207 174 153 218 200 206 210 182 184 160 160 134 97 65 80 122 205 240 273 228 202 98 150 143 197 202 225 211 199 215 198 182 179 182 190 134 167 275 282 358 112 174 180 174 141 142 183 166 136 181 219 172 125 119 242 77 80 266 273 215 247 280 315 281 267 248 260 272 265 254 248 246 249 255 256 256 263 273
242 242 242 236 227 223 218 218 227 223 196 169 165 216 190 231 217 172 184 164 147 141 139 168 181 162 192 200 208 214 209 81 150 171 200 195 256 213 202 238 200 192 199 189 200 199 163 258 285 97 183 249 271 105 84 56 119 127 182 203 181 111 98 109 210 347 41 249 269 244 248 276 293 276 299 290 253 258 255 248 248 252 256 258 255 253 258 267
237 243 249 243 234 224 213 216 222 211 190 169 201 209 181 216 204 177 179 153 135 156 177 209 198 168 182 195 199 187 179 177 172 188 189 178 246 207 181 212 204 200 206 193 203 242 156 237 291 72 172 267 46 115 97 17 78 124 182 182 129 142 197 126 169 206 213 247 275 286 277 263 216 231 274 244 232 236 244 242 245 255 254 252 252 250 251 263
226 240 254 249 238 224 212 213 211 200 190 182 217 209 198 203 198 190 183 165 150 180 201 218 209 191 187 181 166 162 182 187 170 179 188 184 234 203 177 194 207 202 200 187 188 243 140 196 268 324 250 293 51 161 190 174 44 58 90 149 127 155 181 167 156 174 191 228 266 306 313 267 218 201 206 222 224 221 230 233 226 239 241 243 246 246 247 258
213 227 256 245 234 219 206 203 200 193 189 219 207 198 189 183 195 206 201 188 170 183 207 223 210 205 198 173 154 166 188 195 174 185 208 191 214 229 188 187 171 176 188 183 189 185 118 201 239 323 329 196 178 213 196 177 166 154 159 180 191 138 125 176 170 133 146 167 200 291 292 269 239 186 192 214 224 214 214 218 222 234 239 241 241 243 246 240
210 225 248 222 217 198 186 188 192 193 210 222 208 210 195 168 174 200 202 199 202 204 207 206 190 190 172 165 206 189 180 191 185 192 220 203 210 238 201 185 161 132 147 173 199 200 173 193 190 171 232 205 214 243 209 192 185 181 185 192 193 176 146 183 231 209 108 153 174 189 270 271 248 181 195 209 215 214 211 218 233 240 244 247 239 232 229 202
212 230 226 200 204 185 176 179 197 198 214 217 210 200 174 146 156 186 187 191 208 242 244 225 194 190 180 188 208 193 175 192 194 193 212 217 213 219 201 187 170 154 147 163 208 196 165 138 176 204 215 214 235 299 196 229 227 205 209 199 187 181 170 181 209 211 149 209 167 115 266 271 246 166 195 211 219 240 232 228 245 251 245 247 236 207 191 181
216 234 231 206 207 190 175 178 215 193 223 225 205 184 169 168 179 175 179 190 197 192 198 223 197 190 207 202 186 183 188 195 198 201 220 242 225 222 194 181 169 155 151 166 233 169 132 133 206 233 285 305 318 342 27 49 60 242 258 178 161 198 200 181 186 185 162 190 184 126 250 262 260 172 233 241 259 273 254 230 244 257 246 216 207 194 185 185
225 240 244 218 203 190 179 195 203 194 230 225 196 177 187 195 187 174 179 191 192 175 183 214 206 200 221 158 139 187 203 199 209 211 219 244 228 213 185 178 172 168 177 191 175 166 168 197 197 206 278 313 322 315 290 7 105 216 225 192 196 202 189 133 113 153 176 210 198 186 239 250 266 336 285 279 308 285 262 235 238 256 250 213 196 195 194 194
224 238 238 218 204 196 197 216 209 202 219 215 217 204 198 209 200 196 196 187 189 190 188 212 213 203 195 128 133 189 200 213 240 222 219 243 243 205 188 184 182 189 206 205 161 165 177 200 182 190 221 231 232 236 224 192 150 224 217 199 203 195 180 179 185 167 215 226 200 189 242 248 255 6 268 270 310 282 261 249 245 250 243 218 205 201 199 200
201 216 223 215 216 216 223 229 220 213 210 207 215 210 204 217 207 202 202 192 193 196 193 200 198 191 187 187 201 214 213 224 238 216 214 238 246 282 197 194 194 196 202 172 152 155 152 242 197 198 213 222 228 233 194 138 142 206 221 200 196 198 190 193 199 197 217 228 214 213 236 249 256 237 229 254 249 236 246 253 258 254 238 222 215 210 208 212
209 201 189 191 220 232 242 245 229 219 207 193 189 201 209 214 213 197 200 196 193 195 202 215 185 183 184 188 206 223 215 217 225 221 223 228 250 302 273 199 209 211 189 139 152 149 92 249 212 212 224 235 241 229 183 157 175 204 213 198 193 198 190 192 211 219 218 221 234 230 227 245 258 245 218 229 234 228 244 251 252 249 239 233 228 220 221 226
222 219 203 196 198 215 230 231 218 216 220 199 186 206 212 211 212 200 195 200 195 191 197 230 207 205 200 188 197 217 205 206 215 217 221 222 238 294 286 201 210 210 192 140 151 150 132 225 210 206 236 252 259 242 202 199 204 208 210 202 195 192 189 198 215 223 221 215 232 238 225 228 250 251 229 213 212 209 227 241 246 244 243 245 240 229 229 236
226 245 232 214 221 241 229 218 201 206 220 215 206 217 216 215 218 207 174 175 204 197 198 212 215 213 212 205 203 209 204 202 208 210 215 220 215 212 235 248 204 194 175 143 173 168 146 228 211 173 236 259 259 251 220 213 230 233 219 208 199 194 194 203 215 222 224 223 232 244 241 235 246 252 234 216 217 220 230 240 247 251 252 251 246 240 239 246
220 230 228 214 238 262 249 203 167 183 218 221 217 224 224 221 222 214 177 175 191 192 196 211 222 214 209 212 212 216 215 203 205 212 201 206 216 201 212 227 188 159 156 140 187 187 180 224 202 151 224 258 254 252 238 219 228 237 235 221 210 208 206 210 218 222 225 231 237 244 252 256 253 244 224 222 218 219 230 239 243 247 249 250 249 249 250 254
219 216 204 165 230 220 209 197 163 157 205 205 193 218 229 227 224 220 203 200 201 196 190 207 222 220 209 214 215 221 224 215 218 224 208 203 214 203 200 213 154 122 157 164 146 164 186 229 119 132 212 246 243 243 238 225 228 246 247 233 218 215 214 215 219 220 218 224 235 240 248 257 252 216 206 226 205 199 222 228 235 244 246 246 248 250 253 257
224 222 221 229 246 195 187 212 183 183 205 199 188 197 204 206 196 181 217 220 212 214 212 207 215 221 214 219 221 224 228 227 230 237 234 225 227 221 215 216 191 160 162 165 138 157 171 179 185 166 204 247 247 237 219 192 199 237 238 230 223 218 215 215 222 227 222 215 222 229 232 245 248 197 206 236 203 196 223 226 232 243 247 247 248 250 254 260